Location: �quirre
(50.4736°N, 2.2351°E)
Time: 06:32:12
(UTC+00:00)

Cosmos 836 Rocket - Pass Details

Date: 07 August 2020
Orbit: 758 x 777 km, 74.1° (Epoch: 23 September)

Event Time Altitude Azimuth Distance (km) Brightness Sun altitude
Rises 00:03:09 0° 334° (NNW) 3,232 8.8 -23.2°
Reaches altitude 10° 00:05:32 10° 332° (NNW) 2,301 7.8 -23.2°
Maximum altitude 00:10:43 71° 250° (WSW) 803 4.4 -23.1°
Enters shadow 00:11:29 61° 197° (SSW) 863 4.4 -23.1°
